Location: Carrer del Canonge
(41.4901°N, 2.2931°E)
Time: 13:56:27
(UTC+00:00)

NOSS 2-2 (E) - Pass Details

Date: 18 September 2020
Orbit: 468 x 1739 km, 63.3° (Epoch: 26 October)

Event Time Altitude Azimuth Distance (km) Brightness Sun altitude
Rises 19:09:59 0° 224° (SW) 2,511 7.1 -14.8°
Reaches altitude 10° 19:12:05 10° 228° (SW) 1,619 6.1 -15.2°
Maximum altitude 19:15:30 56° 308° (NW) 576 3.7 -15.8°
Drops below altitude 10° 19:19:16 10° 28° (NNE) 1,779 5.8 -16.5°
Sets 19:21:40 0° 33° (NNE) 2,794 6.8 -16.9°
